Location: Edisto_Beach
(32.4790°N, 80.3350°W)
Time: 03:01:50
(UTC-04:00)

Amateur Radio Satellites - All Passes

Search period start: 30 July 2014 02:31
Search period end: 31 July 2014 02:31
Location: Edisto_Beach, 32.4790°N, 80.3350°W

Satellite Date Start Highest point End Downlink Frequencies (MHz)
Time Altitude Azimuth
Oscar 16 30 Jul 02:49:39 02:54:50 75° 102° (ESE) 03:00:00 437.025 USB, Beacon 2401.1428
Oscar 10/S400 30 Jul 03:01:52 03:57:27 71° 205° (SSW) 13:28:22 145.825 - 145.975 CW/USB, Beacon 145.810 USB
ITAMSAT 1 30 Jul 03:12:48 03:17:50 51° 100° (E) 03:22:49 435.822 SSB
Uribyol 2 30 Jul 03:31:52 03:37:03 87° 104° (ESE) 03:42:12 436.500 FM
AO-27 30 Jul 03:32:11 03:37:23 84° 103° (ESE) 03:42:33 436.795 MHz FM
TMSAT-1 30 Jul 03:36:15 03:40:28 24° 96° (E) 03:44:39 436.925 FM
PANSAT 30 Jul 03:45:14 03:47:52 18° 159° (SSE) 03:50:31 not established
JAS-1B 30 Jul 03:48:32 03:57:35 67° 101° (E) 04:05:08 435.800 - 435.900 CW/SSB
Gurwin Techsat 1B 30 Jul 04:00:31 04:05:46 62° 101° (E) 04:11:00 435.225 FM
Oscar 19 30 Jul 04:01:20 04:05:14 22° 292° (WNW) 04:09:09 437.125 CW, 437.150 USB
AO-Echo 30 Jul 04:08:50 04:13:26 37° 288° (WNW) 04:17:52 ?
OPAL 30 Jul 04:24:05 04:28:57 61° 72° (ENE) 04:33:49 ?
Uosat F 30 Jul 04:29:29 04:32:17 15° 94° (E) 04:35:05 435.120 FM
Oscar 16 30 Jul 04:32:20 04:33:30 11° 296° (WNW) 04:34:40 437.025 USB, Beacon 2401.1428
ITAMSAT 1 30 Jul 04:53:51 04:56:51 16° 294° (WNW) 04:59:50 435.822 SSB
TMSAT-1 30 Jul 05:15:40 05:20:21 33° 289° (WNW) 05:25:02 436.925 FM
PANSAT 30 Jul 05:24:02 05:27:39 38° 171° (S) 05:31:16 not established
KITSAT 1 30 Jul 05:39:50 05:47:14 41° 108° (ESE) 05:54:37 435.175 FM
AO-7 30 Jul 05:40:08 05:48:27 71° 105° (ESE) 05:56:41 29.400 - 29.500 MHz
JAS-1B 30 Jul 05:40:14 05:47:03 25° 301° (WNW) 05:53:11 435.800 - 435.900 CW/SSB
Gurwin Techsat 1B 30 Jul 05:42:35 05:45:09 14° 295° (WNW) 05:47:43 435.225 FM
Uosat F 30 Jul 06:06:28 06:11:16 47° 287° (WNW) 06:16:02 435.120 FM
OPAL 30 Jul 06:06:44 06:08:09 11° 265° (W) 06:09:34 ?
Hamsat 30 Jul 06:09:59 06:11:07 11° 92° (E) 06:12:15 145.90 MHz
ISS 30 Jul 06:12:08 06:14:54 23° 37° (NE) 06:17:38 145.800 FM
Saudisat 1A 30 Jul 06:38:25 06:41:21 18° 109° (ESE) 06:44:17 436.775 MHz
MaSat-1 30 Jul 06:48:34 06:53:15 32° 61° (ENE) 06:57:37 437.345 MHz
STRAND 1 30 Jul 06:49:21 06:54:01 36° 71° (ENE) 06:58:42 ?
PANSAT 30 Jul 07:03:54 07:07:36 44° 184° (S) 07:11:18 not established
AO-7 30 Jul 07:34:26 07:40:25 23° 301° (WNW) 07:46:23 29.400 - 29.500 MHz
KITSAT 1 30 Jul 07:35:06 07:42:32 39° 305° (NW) 07:50:01 435.175 FM
Hamsat 30 Jul 07:43:07 07:47:16 48° 285° (WNW) 07:51:26 145.90 MHz
ISS 30 Jul 07:48:42 07:51:34 26° 231° (SW) 07:54:25 145.800 FM
JAS-2 30 Jul 07:54:23 08:00:06 70° 285° (WNW) 08:05:18 435.800 - 435.900 CW/SSB, 435.910 FM
Saudisat 1A 30 Jul 08:16:34 08:20:37 35° 303° (WNW) 08:24:42 436.775 MHz
MaSat-1 30 Jul 08:26:10 08:30:23 25° 257° (WSW) 08:34:18 437.345 MHz
STRAND 1 30 Jul 08:29:27 08:33:14 21° 265° (W) 08:37:03 ?
PANSAT 30 Jul 08:44:15 08:47:28 25° 196° (SSW) 08:50:42 not established
SO-67 30 Jul 08:53:29 08:56:43 37° 285° (WNW) 08:59:56 435.3500 MHz FM
HO-68 30 Jul 08:56:37 08:59:41 13° 92° (E) 09:02:44 435.675 MHz FM
Sapphire 30 Jul 09:07:25 09:08:22 10° 48° (NE) 09:09:19 437.095 MHz 1200 baud AX-25 AFSK
PCSat 30 Jul 09:38:04 09:42:13 22° 55° (NE) 09:46:20 145.825 MHz
UKube-1 30 Jul 10:04:06 10:07:54 29° 98° (E) 10:11:40 145.840 MHz, 145.915 MHz
HO-68 30 Jul 10:40:50 10:48:00 84° 286° (WNW) 10:55:08 435.675 MHz FM
Sapphire 30 Jul 10:47:07 10:52:34 84° 65° (ENE) 10:57:59 437.095 MHz 1200 baud AX-25 AFSK
Oscar 11 30 Jul 10:47:24 10:51:37 49° 100° (E) 10:55:49 145.825 FM, Beacon 2401.500 USB
FUNcube-1 30 Jul 11:12:55 11:16:41 32° 98° (E) 11:20:29 145.950 - 145.970 MHz USB
PCSat 30 Jul 11:20:40 11:25:46 43° 250° (WSW) 11:30:50 145.825 MHz
SO-50 30 Jul 11:37:48 11:41:07 21° 110° (ESE) 11:44:28 436.795 FM
UKube-1 30 Jul 11:40:48 11:43:52 19° 291° (WNW) 11:46:54 145.840 MHz, 145.915 MHz
RS-15 30 Jul 12:21:57 12:31:17 31° 105° (ESE) 12:40:20 29.354 - 29.394 USB, Beacon 29.352 USB
Oscar 11 30 Jul 12:25:51 12:27:20 12° 293° (WNW) 12:28:48 145.825 FM, Beacon 2401.500 USB
HO-68 30 Jul 12:31:44 12:34:37 13° 302° (WNW) 12:37:31 435.675 MHz FM
FUNcube-1 30 Jul 12:50:14 12:52:49 16° 291° (WNW) 12:55:25 145.950 - 145.970 MHz USB
SO-50 30 Jul 13:17:30 13:21:26 30° 305° (NW) 13:25:27 436.795 FM
UOSAT-12 30 Jul 13:30:16 13:33:42 21° 110° (ESE) 13:37:12 437.025 FM, 437.400 FM
Oscar 19 30 Jul 13:34:05 13:38:34 32° 71° (ENE) 13:43:04 437.125 CW, 437.150 USB
AO-Echo 30 Jul 13:39:42 13:43:05 17° 66° (ENE) 13:46:27 ?
Oscar 16 30 Jul 14:02:04 14:07:07 67° 75° (ENE) 14:12:12 437.025 USB, Beacon 2401.1428
JAS-1B 30 Jul 14:25:23 14:33:28 42° 66° (ENE) 14:42:22 435.800 - 435.900 CW/SSB
ITAMSAT 1 30 Jul 14:26:15 14:31:15 49° 73° (ENE) 14:36:15 435.822 SSB
RS-15 30 Jul 14:31:52 14:42:53 61° 302° (WNW) 14:53:41 29.354 - 29.394 USB, Beacon 29.352 USB
Uribyol 2 30 Jul 14:45:04 14:50:16 82° 76° (ENE) 14:55:29 436.500 FM
AO-27 30 Jul 14:45:38 14:50:51 80° 76° (ENE) 14:56:05 436.795 MHz FM
AO-7 30 Jul 14:49:07 14:50:43 11° 51° (NE) 14:52:20 29.400 - 29.500 MHz
TMSAT-1 30 Jul 14:52:46 14:56:58 25° 69° (ENE) 15:01:11 436.925 FM
UOSAT-12 30 Jul 15:09:30 15:13:36 32° 304° (NW) 15:17:48 437.025 FM, 437.400 FM
Oscar 19 30 Jul 15:13:52 15:17:52 23° 264° (W) 15:21:54 437.125 CW, 437.150 USB
AO-Echo 30 Jul 15:16:16 15:21:22 49° 260° (W) 15:26:32 ?
Gurwin Techsat 1B 30 Jul 15:16:59 15:22:12 62° 74° (ENE) 15:27:27 435.225 FM
KITSAT 1 30 Jul 15:32:43 15:40:29 49° 58° (ENE) 15:48:11 435.175 FM
Uosat F 30 Jul 15:39:07 15:41:37 14° 65° (ENE) 15:44:07 435.120 FM
Oscar 16 30 Jul 15:46:01 15:46:51 10° 268° (W) 15:47:41 437.025 USB, Beacon 2401.1428
ITAMSAT 1 30 Jul 16:07:52 16:10:56 16° 266° (W) 16:14:00 435.822 SSB
JAS-1B 30 Jul 16:15:34 16:23:40 44° 264° (W) 16:32:49 435.800 - 435.900 CW/SSB
TMSAT-1 30 Jul 16:31:56 16:36:40 33° 262° (W) 16:41:25 436.925 FM
AO-7 30 Jul 16:33:39 16:41:51 64° 69° (ENE) 16:50:05 29.400 - 29.500 MHz
OPAL 30 Jul 16:39:01 16:43:09 24° 99° (E) 16:47:17 ?
Saudisat 1A 30 Jul 16:47:18 16:51:33 46° 59° (ENE) 16:55:45 436.775 MHz
RS-15 30 Jul 16:51:59 16:58:04 16° 329° (NNW) 17:04:09 29.354 - 29.394 USB, Beacon 29.352 USB
Gurwin Techsat 1B 30 Jul 17:00:19 17:02:30 13° 268° (W) 17:04:41 435.225 FM
Uosat F 30 Jul 17:14:56 17:19:52 56° 259° (W) 17:24:50 435.120 FM
KITSAT 1 30 Jul 17:28:41 17:35:30 31° 254° (WSW) 17:42:18 435.175 FM
JAS-2 30 Jul 17:59:30 18:06:21 35° 69° (ENE) 18:12:50 435.800 - 435.900 CW/SSB, 435.910 FM
OPAL 30 Jul 18:17:29 18:21:58 32° 291° (WNW) 18:26:28 ?
Saudisat 1A 30 Jul 18:28:40 18:30:40 13° 252° (WSW) 18:32:41 436.775 MHz
AO-7 30 Jul 18:28:45 18:35:00 23° 264° (W) 18:41:18 29.400 - 29.500 MHz
Hamsat 30 Jul 18:31:42 18:35:49 64° 76° (ENE) 18:39:58 145.90 MHz
STRAND 1 30 Jul 19:05:35 19:08:58 18° 95° (E) 19:12:20 ?
SO-67 30 Jul 19:22:14 19:25:15 29° 74° (ENE) 19:28:18 435.3500 MHz FM
JAS-2 30 Jul 19:43:48 19:51:06 42° 262° (W) 19:58:06 435.800 - 435.900 CW/SSB, 435.910 FM
MaSat-1 30 Jul 20:35:30 20:38:45 26° 103° (ESE) 20:42:26 437.345 MHz
STRAND 1 30 Jul 20:43:30 20:48:16 41° 288° (WNW) 20:53:00 ?
UKube-1 30 Jul 20:56:29 20:59:01 15° 68° (ENE) 21:01:34 145.840 MHz, 145.915 MHz
SO-67 30 Jul 20:57:32 20:58:22 11° 267° (W) 20:59:12 435.3500 MHz FM
HO-68 30 Jul 21:04:13 21:10:58 46° 69° (ENE) 21:17:43 435.675 MHz FM
RS-15 30 Jul 21:27:19 21:36:13 27° 43° (NE) 21:45:16 29.354 - 29.394 USB, Beacon 29.352 USB
Oscar 11 30 Jul 21:38:43 21:42:02 22° 70° (ENE) 21:45:20 145.825 FM, Beacon 2401.500 USB
SO-50 30 Jul 21:52:38 21:57:24 66° 61° (ENE) 22:02:12 436.795 FM
FUNcube-1 30 Jul 22:06:18 22:08:53 16° 69° (ENE) 22:11:25 145.950 - 145.970 MHz USB
MaSat-1 30 Jul 22:12:53 22:16:01 21° 303° (WNW) 22:19:29 437.345 MHz
UKube-1 30 Jul 22:30:50 22:34:52 37° 261° (W) 22:38:56 145.840 MHz, 145.915 MHz
ISS 30 Jul 22:50:35 22:53:54 89° 135° (SE) 22:57:14 145.800 FM
HO-68 30 Jul 22:52:50 22:58:44 28° 263° (W) 23:04:41 435.675 MHz FM
Oscar 11 30 Jul 23:14:34 23:18:03 24° 264° (W) 23:21:34 145.825 FM, Beacon 2401.500 USB
SO-50 30 Jul 23:36:21 23:37:24 11° 253° (WSW) 23:38:27 436.795 FM
RS-15 30 Jul 23:38:39 23:49:47 82° 245° (WSW) 00:01:24 29.354 - 29.394 USB, Beacon 29.352 USB
FUNcube-1 30 Jul 23:41:02 23:44:59 34° 262° (W) 23:48:52 145.950 - 145.970 MHz USB
Sapphire 30 Jul 23:42:37 23:46:34 21° 106° (ESE) 23:50:31 437.095 MHz 1200 baud AX-25 AFSK
UOSAT-12 30 Jul 23:42:54 23:47:35 61° 60° (ENE) 23:52:10 437.025 FM, 437.400 FM
PCSat 31 Jul 00:14:23 00:19:32 48° 110° (ESE) 00:24:43 145.825 MHz
ISS 31 Jul 00:30:09 00:31:02 11° 331° (NNW) 00:31:55 145.800 FM
Sapphire 31 Jul 01:24:34 01:29:38 41° 300° (WNW) 01:34:44 437.095 MHz 1200 baud AX-25 AFSK
UOSAT-12 31 Jul 01:25:53 01:27:08 11° 254° (WSW) 01:28:23 437.025 FM, 437.400 FM
Oscar 19 31 Jul 01:51:11 01:54:27 17° 94° (E) 01:57:42 437.125 CW, 437.150 USB
RS-15 31 Jul 01:55:07 02:00:32 15° 260° (W) 02:06:04 29.354 - 29.394 USB, Beacon 29.352 USB
PCSat 31 Jul 01:59:15 02:03:09 20° 306° (NW) 02:07:05 145.825 MHz
Oscar 16 31 Jul 02:18:43 02:23:26 35° 98° (E) 02:28:07 437.025 USB, Beacon 2401.1428
JAS-1B 31 Jul 02:20:55 02:24:48 14° 85° (E) 02:28:25 435.800 - 435.900 CW/SSB
